Time,TemperatureF,DewpointF,PressureIn,WindDirection,WindDirectionDegrees,WindSpeedMPH,WindSpeedGustMPH,Humidity,HourlyPrecipIn,Conditions,Clouds,dailyrainin,SolarRadiationWatts/m^2,SoftwareType,DateUTC
2013-05-04 00:00:00,64.3,61.0,29.87,West,281,0.0,-999.0,90,-99.99,,,0.09,0,weatherlink.com 1.10,2013-05-04 04:00:00,
2013-05-04 00:15:00,64.4,61.0,29.86,SSE,163,0.0,-999.0,89,-99.99,,,0.09,0,weatherlink.com 1.10,2013-05-04 04:15:00,
2013-05-04 00:30:00,64.5,61.0,29.85,ENE,75,0.0,-999.0,88,-99.99,,,0.09,0,weatherlink.com 1.10,2013-05-04 04:30:00,
2013-05-04 00:45:00,64.4,61.0,29.85,SE,132,1.0,-999.0,87,-99.99,,,0.09,0,weatherlink.com 1.10,2013-05-04 04:45:00,
2013-05-04 01:00:00,64.2,60.0,29.85,SSE,162,0.0,-999.0,87,-99.99,,,0.09,0,weatherlink.com 1.10,2013-05-04 05:00:00,
2013-05-04 01:15:00,64.2,60.0,29.85,SSE,163,0.0,-999.0,87,-99.99,,,0.09,0,weatherlink.com 1.10,2013-05-04 05:15:00,
2013-05-04 01:30:00,64.1,60.0,29.85,SSE,163,0.0,-999.0,87,-99.99,,,0.00,0,weatherlink.com 1.10,2013-05-04 05:30:00,
2013-05-04 01:45:00,64.1,61.0,29.84,SE,131,0.0,-999.0,88,-99.99,,,0.00,0,weatherlink.com 1.10,2013-05-04 05:45:00,
2013-05-04 02:00:00,64.1,61.0,29.84,SE,136,0.0,-999.0,89,-99.99,,,0.00,0,weatherlink.com 1.10,2013-05-04 06:00:00,
2013-05-04 02:15:00,64.1,61.0,29.83,SE,136,0.0,-999.0,89,-99.99,,,0.00,0,weatherlink.com 1.10,2013-05-04 06:15:00,
2013-05-04 02:30:00,64.1,61.0,29.82,SE,136,0.0,-999.0,90,-99.99,,,0.00,0,weatherlink.com 1.10,2013-05-04 06:30:00,
2013-05-04 02:45:00,64.0,61.0,29.82,SE,127,0.0,-999.0,90,-99.99,,,0.00,0,weatherlink.com 1.10,2013-05-04 06:45:00,
2013-05-04 03:00:00,63.9,61.0,29.82,NNW,338,0.0,-999.0,90,-99.99,,,0.00,0,weatherlink.com 1.10,2013-05-04 07:00:00,
2013-05-04 03:15:00,63.9,61.0,29.82,ESE,119,0.0,-999.0,90,-99.99,,,0.00,0,weatherlink.com 1.10,2013-05-04 07:15:00,
2013-05-04 03:30:00,63.8,61.0,29.81,ESE,113,0.0,-999.0,90,-99.99,,,0.00,0,weatherlink.com 1.10,2013-05-04 07:30:00,
2013-05-04 03:45:00,63.8,61.0,29.81,WNW,300,0.0,-999.0,90,-99.99,,,0.00,0,weatherlink.com 1.10,2013-05-04 07:45:00,
2013-05-04 04:00:00,63.8,61.0,29.82,SSE,150,0.0,-999.0,90,-99.99,,,0.00,0,weatherlink.com 1.10,2013-05-04 08:00:00,
2013-05-04 04:15:00,63.7,61.0,29.82,ESE,123,1.0,-999.0,91,-99.99,,,0.00,0,weatherlink.com 1.10,2013-05-04 08:15:00,
2013-05-04 04:30:00,63.8,61.0,29.82,East,84,0.0,-999.0,91,-99.99,,,0.01,0,weatherlink.com 1.10,2013-05-04 08:30:00,
2013-05-04 04:45:00,63.4,61.0,29.81,NNE,28,0.0,-999.0,91,-99.99,,,0.01,0,weatherlink.com 1.10,2013-05-04 08:45:00,
2013-05-04 05:00:00,63.0,61.0,29.80,South,188,0.0,-999.0,92,-99.99,,,0.01,0,weatherlink.com 1.10,2013-05-04 09:00:00,
2013-05-04 05:15:00,62.5,60.0,29.80,South,184,0.0,-999.0,92,-99.99,,,0.01,0,weatherlink.com 1.10,2013-05-04 09:15:00,
2013-05-04 05:30:00,62.1,60.0,29.80,NW,309,2.0,-999.0,92,-99.99,,,0.01,0,weatherlink.com 1.10,2013-05-04 09:30:00,
2013-05-04 05:45:00,61.7,60.0,29.80,ESE,119,0.0,-999.0,93,-99.99,,,0.01,0,weatherlink.com 1.10,2013-05-04 09:45:00,
2013-05-04 06:00:00,61.4,59.0,29.80,South,178,0.0,-999.0,93,-99.99,,,0.01,0,weatherlink.com 1.10,2013-05-04 10:00:00,
2013-05-04 06:15:00,61.1,59.0,29.80,SSE,166,0.0,-999.0,93,-99.99,,,0.01,0,weatherlink.com 1.10,2013-05-04 10:15:00,
2013-05-04 06:30:00,60.8,59.0,29.80,SSE,147,0.0,-999.0,94,-99.99,,,0.01,0,weatherlink.com 1.10,2013-05-04 10:30:00,
2013-05-04 06:45:00,60.6,59.0,29.81,South,178,0.0,-999.0,94,-99.99,,,0.01,0,weatherlink.com 1.10,2013-05-04 10:45:00,
2013-05-04 07:00:00,60.3,59.0,29.81,SSE,150,0.0,-999.0,94,-99.99,,,0.01,0,weatherlink.com 1.10,2013-05-04 11:00:00,
2013-05-04 07:15:00,60.2,59.0,29.82,SSE,168,0.0,-999.0,94,-99.99,,,0.01,0,weatherlink.com 1.10,2013-05-04 11:15:00,
2013-05-04 07:30:00,60.1,58.0,29.82,East,96,2.0,-999.0,94,-99.99,,,0.01,9,weatherlink.com 1.10,2013-05-04 11:30:00,
2013-05-04 07:45:00,60.1,58.0,29.83,NNE,19,0.0,-999.0,94,-99.99,,,0.01,9,weatherlink.com 1.10,2013-05-04 11:45:00,
2013-05-04 08:00:00,60.1,58.0,29.83,NNE,19,0.0,-999.0,94,-99.99,,,0.01,16,weatherlink.com 1.10,2013-05-04 12:00:00,
2013-05-04 08:15:00,60.1,58.0,29.84,SE,132,0.0,-999.0,94,-99.99,,,0.01,23,weatherlink.com 1.10,2013-05-04 12:15:00,
2013-05-04 08:30:00,60.3,59.0,29.83,North,360,0.0,-999.0,94,-99.99,,,0.01,26,weatherlink.com 1.10,2013-05-04 12:30:00,
2013-05-04 08:45:00,60.3,59.0,29.83,South,178,0.0,-999.0,94,-99.99,,,0.02,37,weatherlink.com 1.10,2013-05-04 12:45:00,
2013-05-04 09:00:00,60.3,59.0,29.83,SSE,167,0.0,-999.0,94,-99.99,,,0.02,58,weatherlink.com 1.10,2013-05-04 13:00:00,
2013-05-04 09:15:00,60.4,59.0,29.84,SSE,167,0.0,-999.0,95,-99.99,,,0.02,37,weatherlink.com 1.10,2013-05-04 13:15:00,
2013-05-04 09:30:00,60.2,59.0,29.83,SW,236,0.0,-999.0,94,-99.99,,,0.02,58,weatherlink.com 1.10,2013-05-04 13:30:00,
2013-05-04 09:45:00,60.1,58.0,29.83,SSE,167,0.0,-999.0,94,-99.99,,,0.02,47,weatherlink.com 1.10,2013-05-04 13:45:00,
2013-05-04 10:00:00,60.3,59.0,29.83,SW,223,0.0,-999.0,95,-99.99,,,0.02,83,weatherlink.com 1.10,2013-05-04 14:00:00,
2013-05-04 10:15:00,60.7,59.0,29.83,ESE,113,1.0,-999.0,95,-99.99,,,0.02,95,weatherlink.com 1.10,2013-05-04 14:15:00,
2013-05-04 10:30:00,60.8,59.0,29.83,SSE,159,1.0,-999.0,94,-99.99,,,0.02,76,weatherlink.com 1.10,2013-05-04 14:30:00,
2013-05-04 10:45:00,61.0,59.0,29.83,SSE,163,2.0,-999.0,94,-99.99,,,0.02,121,weatherlink.com 1.10,2013-05-04 14:45:00,
2013-05-04 11:00:00,61.4,60.0,29.82,NNW,332,0.0,-999.0,94,-99.99,,,0.02,128,weatherlink.com 1.10,2013-05-04 15:00:00,
2013-05-04 11:15:00,62.4,60.0,29.82,WNW,292,0.0,-999.0,93,-99.99,,,0.02,125,weatherlink.com 1.10,2013-05-04 15:15:00,
2013-05-04 11:30:00,62.6,61.0,29.82,North,9,0.0,-999.0,93,-99.99,,,0.02,86,weatherlink.com 1.10,2013-05-04 15:30:00,
2013-05-04 11:45:00,62.6,61.0,29.82,South,191,0.0,-999.0,93,-99.99,,,0.02,70,weatherlink.com 1.10,2013-05-04 15:45:00,
2013-05-04 12:00:00,62.7,61.0,29.81,ENE,76,0.0,-999.0,94,-99.99,,,0.02,58,weatherlink.com 1.10,2013-05-04 16:00:00,
2013-05-04 12:15:00,63.0,61.0,29.81,ESE,108,0.0,-999.0,94,-99.99,,,0.02,97,weatherlink.com 1.10,2013-05-04 16:15:00,
2013-05-04 12:30:00,63.7,62.0,29.81,SSE,147,0.0,-999.0,94,-99.99,,,0.03,69,weatherlink.com 1.10,2013-05-04 16:30:00,
2013-05-04 12:45:00,63.6,62.0,29.80,ESE,108,0.0,-999.0,95,-99.99,,,0.06,151,weatherlink.com 1.10,2013-05-04 16:45:00,
2013-05-04 13:00:00,63.4,62.0,29.80,North,360,0.0,-999.0,95,-99.99,,,0.07,102,weatherlink.com 1.10,2013-05-04 17:00:00,
2013-05-04 13:15:00,63.5,62.0,29.79,SE,138,0.0,-999.0,95,-99.99,,,0.07,100,weatherlink.com 1.10,2013-05-04 17:15:00,
2013-05-04 13:30:00,63.8,63.0,29.78,ESE,122,0.0,-999.0,96,-99.99,,,0.07,234,weatherlink.com 1.10,2013-05-04 17:30:00,
2013-05-04 13:45:00,64.8,63.0,29.77,SSE,161,1.0,-999.0,95,-99.99,,,0.07,264,weatherlink.com 1.10,2013-05-04 17:45:00,
2013-05-04 14:00:00,65.8,64.0,29.77,SSE,162,5.0,-999.0,94,-99.99,,,0.07,202,weatherlink.com 1.10,2013-05-04 18:00:00,
2013-05-04 14:15:00,66.6,64.0,29.76,SE,130,0.0,-999.0,91,-99.99,,,0.07,141,weatherlink.com 1.10,2013-05-04 18:15:00,
2013-05-04 14:30:00,66.6,64.0,29.76,SE,140,2.0,-999.0,90,-99.99,,,0.07,169,weatherlink.com 1.10,2013-05-04 18:30:00,
2013-05-04 14:45:00,66.2,63.0,29.76,SE,144,6.0,-999.0,89,-99.99,,,0.07,69,weatherlink.com 1.10,2013-05-04 18:45:00,
2013-05-04 15:00:00,66.0,63.0,29.78,SW,216,3.0,-999.0,91,-99.99,,,0.07,21,weatherlink.com 1.10,2013-05-04 19:00:00,
2013-05-04 15:15:00,65.3,64.0,29.78,SSW,205,2.0,-999.0,94,-99.99,,,0.37,216,weatherlink.com 1.10,2013-05-04 19:15:00,
2013-05-04 15:30:00,65.8,65.0,29.78,SSW,205,0.0,-999.0,96,-99.99,,,0.43,100,weatherlink.com 1.10,2013-05-04 19:30:00,
2013-05-04 15:45:00,66.3,65.0,29.78,SSW,205,0.0,-999.0,96,-99.99,,,0.44,142,weatherlink.com 1.10,2013-05-04 19:45:00,
2013-05-04 16:00:00,66.1,65.0,29.78,NW,311,6.0,-999.0,96,-99.99,,,0.44,39,weatherlink.com 1.10,2013-05-04 20:00:00,
2013-05-04 16:15:00,61.5,60.0,29.79,NW,307,4.0,-999.0,95,-99.99,,,0.45,250,weatherlink.com 1.10,2013-05-04 20:15:00,
2013-05-04 16:30:00,61.3,60.0,29.79,NW,313,0.0,-999.0,96,-99.99,,,0.46,135,weatherlink.com 1.10,2013-05-04 20:30:00,
2013-05-04 16:45:00,60.6,60.0,29.78,NW,315,1.0,-999.0,96,-99.99,,,0.46,105,weatherlink.com 1.10,2013-05-04 20:45:00,
2013-05-04 17:00:00,60.4,59.0,29.78,West,273,0.0,-999.0,96,-99.99,,,0.46,127,weatherlink.com 1.10,2013-05-04 21:00:00,
2013-05-04 17:15:00,60.9,60.0,29.78,WNW,301,2.0,-999.0,97,-99.99,,,0.49,137,weatherlink.com 1.10,2013-05-04 21:15:00,
2013-05-04 17:30:00,61.1,60.0,29.78,WSW,254,2.0,-999.0,97,-99.99,,,0.49,86,weatherlink.com 1.10,2013-05-04 21:30:00,
2013-05-04 17:45:00,60.7,60.0,29.79,NW,308,0.0,-999.0,97,-99.99,,,0.51,65,weatherlink.com 1.10,2013-05-04 21:45:00,
2013-05-04 18:00:00,60.5,60.0,29.79,WSW,257,2.0,-999.0,97,-99.99,,,0.55,40,weatherlink.com 1.10,2013-05-04 22:00:00,
2013-05-04 18:15:00,60.4,60.0,29.79,NNW,344,2.0,-999.0,97,-99.99,,,0.63,40,weatherlink.com 1.10,2013-05-04 22:15:00,
2013-05-04 18:30:00,60.5,60.0,29.79,NW,319,2.0,-999.0,97,-99.99,,,0.65,32,weatherlink.com 1.10,2013-05-04 22:30:00,
2013-05-04 18:45:00,60.3,60.0,29.79,NW,322,0.0,-999.0,97,-99.99,,,0.65,35,weatherlink.com 1.10,2013-05-04 22:45:00,
2013-05-04 19:00:00,60.2,59.0,29.79,NW,315,4.0,-999.0,97,-99.99,,,0.69,19,weatherlink.com 1.10,2013-05-04 23:00:00,
2013-05-04 19:15:00,59.1,58.0,29.79,WNW,288,4.0,-999.0,97,-99.99,,,0.70,18,weatherlink.com 1.10,2013-05-04 23:15:00,
2013-05-04 19:30:00,57.5,57.0,29.80,NW,304,4.0,-999.0,97,-99.99,,,0.71,12,weatherlink.com 1.10,2013-05-04 23:30:00,
2013-05-04 19:45:00,56.7,56.0,29.80,WNW,285,5.0,-999.0,97,-99.99,,,0.73,0,weatherlink.com 1.10,2013-05-04 23:45:00,
2013-05-04 20:00:00,55.8,55.0,29.81,West,265,2.0,-999.0,97,-99.99,,,0.73,0,weatherlink.com 1.10,2013-05-05 00:00:00,
2013-05-04 20:15:00,55.5,55.0,29.81,West,279,2.0,-999.0,97,-99.99,,,0.75,0,weatherlink.com 1.10,2013-05-05 00:15:00,
2013-05-04 20:30:00,55.3,55.0,29.81,WNW,285,2.0,-999.0,97,-99.99,,,0.77,0,weatherlink.com 1.10,2013-05-05 00:30:00,
2013-05-04 20:45:00,55.1,54.0,29.82,WNW,297,1.0,-999.0,97,-99.99,,,0.77,0,weatherlink.com 1.10,2013-05-05 00:45:00,
2013-05-04 21:00:00,54.8,54.0,29.82,NNW,346,4.0,-999.0,97,-99.99,,,0.79,0,weatherlink.com 1.10,2013-05-05 01:00:00,
2013-05-04 21:15:00,54.3,54.0,29.82,North,9,1.0,-999.0,97,-99.99,,,0.80,0,weatherlink.com 1.10,2013-05-05 01:15:00,
2013-05-04 21:30:00,54.0,53.0,29.83,NW,324,0.0,-999.0,97,-99.99,,,0.81,0,weatherlink.com 1.10,2013-05-05 01:30:00,
2013-05-04 21:45:00,53.9,53.0,29.83,North,349,1.0,-999.0,97,-99.99,,,0.82,0,weatherlink.com 1.10,2013-05-05 01:45:00,
2013-05-04 22:00:00,53.6,53.0,29.84,WNW,301,1.0,-999.0,97,-99.99,,,0.83,0,weatherlink.com 1.10,2013-05-05 02:00:00,
2013-05-04 22:15:00,53.5,53.0,29.84,NW,314,0.0,-999.0,97,-99.99,,,0.88,0,weatherlink.com 1.10,2013-05-05 02:15:00,
2013-05-04 22:30:00,53.4,53.0,29.84,NW,309,0.0,-999.0,97,-99.99,,,0.89,0,weatherlink.com 1.10,2013-05-05 02:30:00,
2013-05-04 22:45:00,53.4,53.0,29.83,NNW,331,1.0,-999.0,97,-99.99,,,0.90,0,weatherlink.com 1.10,2013-05-05 02:45:00,
2013-05-04 23:00:00,53.5,53.0,29.84,WNW,290,0.0,-999.0,97,-99.99,,,0.90,0,weatherlink.com 1.10,2013-05-05 03:00:00,
2013-05-04 23:15:00,53.5,53.0,29.83,NW,326,1.0,-999.0,97,-99.99,,,0.90,0,weatherlink.com 1.10,2013-05-05 03:15:00,
2013-05-04 23:30:00,53.5,53.0,29.83,North,355,0.0,-999.0,97,-99.99,,,0.91,0,weatherlink.com 1.10,2013-05-05 03:30:00,
2013-05-04 23:45:00,53.5,53.0,29.83,NW,315,0.0,-999.0,97,-99.99,,,0.91,0,weatherlink.com 1.10,2013-05-05 03:45:00,